TimeMDT,TemperatureF,Dew PointF,Humidity,Sea Level PressureIn,VisibilityMPH,Wind Direction,Wind SpeedMPH,Gust SpeedMPH,PrecipitationIn,Events,Conditions,WindDirDegrees,DateUTC
12:53 AM,48.0,48.0,100,29.65,0.8,South,21.9,-,N/A,,Mist,170,2012-10-23 06:53:00
1:07 AM,48.2,46.4,93,29.73,1.0,South,16.1,-,N/A,,Mist,170,2012-10-23 07:07:00
1:46 AM,46.4,46.4,100,29.71,0.8,South,11.5,-,N/A,,Mist,190,2012-10-23 07:46:00
1:53 AM,46.0,46.0,100,29.64,1.0,South,13.8,-,N/A,,Mist,190,2012-10-23 07:53:00
2:15 AM,44.6,44.6,100,29.71,2.5,South,6.9,-,N/A,,Overcast,190,2012-10-23 08:15:00
2:30 AM,44.6,44.6,100,29.71,1.0,South,8.1,-,N/A,,Overcast,180,2012-10-23 08:30:00
2:37 AM,44.6,42.8,93,29.71,0.8,South,6.9,-,N/A,,Overcast,170,2012-10-23 08:37:00
2:46 AM,42.8,42.8,100,29.71,1.8,South,6.9,-,N/A,,Mostly Cloudy,180,2012-10-23 08:46:00
2:50 AM,42.8,42.8,100,29.71,2.5,South,5.8,-,N/A,,Scattered Clouds,190,2012-10-23 08:50:00
2:53 AM,42.1,42.1,100,29.63,4.0,South,6.9,-,N/A,,Scattered Clouds,190,2012-10-23 08:53:00
3:53 AM,43.0,41.0,93,29.62,10.0,WSW,10.4,-,N/A,,Clear,250,2012-10-23 09:53:00
4:53 AM,43.0,39.9,89,29.64,10.0,WNW,10.4,-,N/A,,Clear,300,2012-10-23 10:53:00
5:53 AM,41.0,37.9,89,29.68,10.0,WNW,10.4,-,N/A,,Clear,300,2012-10-23 11:53:00
6:53 AM,37.9,36.0,93,29.70,10.0,WNW,6.9,-,N/A,,Clear,300,2012-10-23 12:53:00
7:53 AM,44.1,39.0,82,29.70,10.0,Calm,Calm,-,N/A,,Clear,0,2012-10-23 13:53:00
9:53 AM,66.0,41.0,40,29.66,10.0,South,11.5,-,N/A,,Clear,190,2012-10-23 15:53:00
11:53 AM,81.0,30.0,16,29.63,10.0,SW,23.0,31.1,N/A,,Clear,230,2012-10-23 17:53:00
12:53 PM,82.0,26.1,13,29.62,10.0,WSW,23.0,36.8,N/A,,Clear,240,2012-10-23 18:53:00
1:53 PM,82.0,25.0,12,29.62,10.0,WSW,20.7,25.3,N/A,,Clear,250,2012-10-23 19:53:00
2:53 PM,82.9,21.0,10,29.59,10.0,SW,17.3,24.2,N/A,,Clear,220,2012-10-23 20:53:00
3:53 PM,82.0,19.9,10,29.59,10.0,SW,15.0,24.2,N/A,,Clear,230,2012-10-23 21:53:00
4:53 PM,80.1,19.9,11,29.59,10.0,SW,17.3,-,N/A,,Clear,220,2012-10-23 22:53:00
5:53 PM,69.1,19.9,15,29.62,10.0,SSW,11.5,-,N/A,,Clear,200,2012-10-23 23:53:00
6:53 PM,64.0,21.0,19,29.66,10.0,South,15.0,-,N/A,,Clear,190,2012-10-24 00:53:00
7:53 PM,62.1,19.9,20,29.66,10.0,South,13.8,-,N/A,,Clear,190,2012-10-24 01:53:00
8:53 PM,55.0,21.0,27,29.66,10.0,SW,9.2,-,N/A,,Clear,220,2012-10-24 02:53:00
9:53 PM,54.0,21.9,29,29.63,10.0,SSW,10.4,-,N/A,,Clear,210,2012-10-24 03:53:00
10:53 PM,63.0,19.0,18,29.58,10.0,SSW,13.8,-,N/A,,Clear,210,2012-10-24 04:53:00